KOREASAT 6A

Last updated on Sun Jun 21 2026 00:03:09 GMT+0000 (Coordinated Universal Time)

1 61910U 24206A 26170.77339228 -.00000367 00000+0 00000+0 0 9993 2 61910 0.0257 97.0850 0000818 327.3804 237.9476 1.00269362 5862
UTC large
Height (km)
Speed (km/s)
/
Latitude / Longitude
Inclination (degrees)
Orbital Period (minutes)
Azimuth
Elevation
Range (km)
Doppler Factor

Next 0 passes for location: London (51.5072 / 0.1276)

No passes found over London.
KOREASAT 6A